{"data":{"norad_id":68839,"epoch":"2026-05-24T22:20:11.630688Z","epoch_age_seconds":78040,"freshness":"FRESH","line1":"1 68839U 26094A   26144.93069017  .00073477  00000+0  12966-2 0  9990","line2":"2 68839  97.2842 159.5427 0002750 321.2841  38.8213 15.50128381  4470","mean_motion":15.50128381,"eccentricity":0.000275,"inclination_deg":97.2842,"raan_deg":159.5427,"arg_perigee_deg":321.2841,"mean_anomaly_deg":38.8213,"bstar":0.0012966,"rev_number":447,"period_min":92.895531599199,"perigee_km":414.48241467489,"apogee_km":418.21938301925,"semimajor_km":6794.4878988471,"source":"CELESTRAK","updated_at":"2026-05-25T13:38:22.045320Z"}}